Вернуться в каталог

STARLINK-36613

АктивенСвязьSSO
NORAD 67578·PAYLOAD·🇺🇸 United States

Запущен Jan 25, 2026 с Vandenberg Space Force Base

Loading…

Ближайшие Пролёты (ближайшие 24 часа)

TLE

СвежийSource: CelesTrak SupGP

Эпоха: Sep 15, 2026, 03:54 UTC

1 67578C 26016T   26258.16298611 -.00128890  00000+0 -40002-2 0  2580
2 67578  97.2851 316.8314 0000362 100.4114  48.9192 15.33512222    15

Отслеживайте STARLINK-36613 в реальном времени с AllMySat

Download on the App Store